15min,AgWx,beryljct,423,20SEP2021:00:00:00,52.6,12.84,50.0,49.6,49.8,50.6,49.3,60,61,58,0.725,36.5,36.8,36.3,2.784,3.2,62,7.4,4.4,-0.00001,0.00002,59.4,62.1,16,0,0,.,13.87,0.00,0.00
15min,AgWx,beryljct,423,20SEP2021:00:15:00,51.5,12.84,50.0,49.9,49.8,50.4,49.3,58,61,56,0.704,35.8,36.5,35.3,1.754,1.8,53,16,3.8,-0.00011,-0.00013,59.3,62.0,15,0,0,.,13.87,0.00,0.00
15min,AgWx,beryljct,423,20SEP2021:00:30:00,50.7,12.84,48.9,49.0,49.9,50.4,49.0,56,58,55,0.677,35.0,35.6,34.5,1.841,2.1,39,12,3.6,-0.00009,-0.00009,59.2,62.0,16,0,0,.,13.88,0.00,0.00
15min,AgWx,beryljct,423,20SEP2021:00:45:00,50.0,12.83,50.1,49.6,49.1,49.6,48.7,57,58,56,0.672,34.4,34.7,34.1,1.359,1.6,33,7.0,3.0,-0.00013,-0.00016,59.1,62.0,16,0,0,.,13.88,0.00,0.00
15min,AgWx,beryljct,423,20SEP2021:01:00:00,49.4,12.82,48.7,48.8,49.4,49.9,48.8,56,57,54,0.672,34.2,34.5,33.9,2.477,1.9,353,14,3.2,-0.00010,-0.00011,59.0,61.9,16,0,0,.,13.87,0.00,0.00
15min,AgWx,beryljct,423,20SEP2021:01:15:00,49.0,12.81,49.3,49.0,48.7,49.0,48.2,58,59,56,0.673,34.4,34.7,34.2,1.293,2.3,330,9.5,3.3,-0.00006,-0.00006,58.9,61.9,16,0,0,.,13.87,0.00,0.00
15min,AgWx,beryljct,423,20SEP2021:01:30:00,48.4,12.8,48.9,47.6,48.3,49.5,46.4,58,63,55,0.665,34.1,34.8,33.7,0,0.2,2.7,5.1,1.3,-0.00031,-0.00048,58.7,61.9,16,0,0,.,13.88,0.00,0.00
15min,AgWx,beryljct,423,20SEP2021:01:45:00,47.9,12.8,45.6,46.9,48.1,48.9,46.9,57,60,55,0.654,33.6,34.1,33.3,4.187,1.9,59,7.7,5.3,-0.00011,-0.00012,58.5,61.8,16,0,0,.,13.88,0.00,0.00
15min,AgWx,beryljct,423,20SEP2021:02:00:00,47.3,12.79,45.8,45.4,45.8,46.8,45.3,63,65,60,0.666,34.0,34.3,33.8,1.074,2.6,62,7.7,5.9,-0.00006,-0.00006,58.4,61.8,15,0,0,.,13.87,0.00,0.00
15min,AgWx,beryljct,423,20SEP2021:02:15:00,46.8,12.79,44.7,45.7,45.9,46.8,45.4,62,64,60,0.641,33.5,34.2,33.2,3.442,2.7,40,15,4.9,-0.00005,-0.00004,58.2,61.8,16,0,0,.,13.88,0.00,0.00
15min,AgWx,beryljct,423,20SEP2021:02:30:00,46.3,12.76,46.4,45.4,45.1,45.6,44.8,63,64,62,0.644,33.3,33.5,33.2,2.543,2.6,33,5.6,4.0,-0.00006,-0.00006,58.1,61.7,16,0,0,.,13.88,0.00,0.00
15min,AgWx,beryljct,423,20SEP2021:02:45:00,45.8,12.77,45.8,44.6,45.0,46.3,44.1,63,66,60,0.641,33.2,33.5,33.0,2.17,2.2,337,12,2.9,-0.00009,-0.00010,57.9,61.7,15,0,0,.,13.88,0.00,0.00
15min,AgWx,beryljct,423,20SEP2021:03:00:00,45.3,12.76,43.8,44.0,45.0,45.7,43.7,63,67,61,0.645,33.2,33.5,32.8,0.044,1.0,13,14,2.5,-0.00019,-0.00027,57.8,61.6,16,0,0,.,13.88,0.00,0.00
15min,AgWx,beryljct,423,20SEP2021:03:15:00,44.8,12.75,44.1,44.2,44.0,44.3,43.6,65,66,63,0.628,32.8,33.3,32.6,1.929,2.3,328,17,3.2,-0.00009,-0.00010,57.6,61.5,16,0,0,.,13.88,0.00,0.00
15min,AgWx,beryljct,423,20SEP2021:03:30:00,44.3,12.74,43.4,43.5,44.0,44.4,43.5,65,66,63,0.635,32.9,33.1,32.6,1.206,2.5,323,5.3,4.0,-0.00007,-0.00007,57.5,61.5,16,0,0,.,13.88,0.00,0.00
15min,AgWx,beryljct,423,20SEP2021:03:45:00,43.8,12.73,44.8,44.4,44.1,44.9,43.4,65,67,62,0.635,32.9,33.4,32.6,2.039,1.0,321,8.1,2.0,-0.00020,-0.00027,57.3,61.5,16,0,0,.,13.88,0.00,0.00
15min,AgWx,beryljct,423,20SEP2021:04:00:00,43.4,12.72,42.0,43.2,44.2,45.1,43.2,65,67,62,0.622,33.1,33.4,32.5,0,0.4,298,2.4,2.3,-0.00026,-0.00039,57.2,61.4,16,0,0,.,13.88,0.00,0.00
15min,AgWx,beryljct,423,20SEP2021:04:15:00,42.9,12.71,43.1,44.2,43.5,44.2,42.1,66,70,65,0.638,32.9,33.4,32.4,1.096,0.2,302,2.4,1.7,-0.00028,-0.00043,57.0,61.3,16,0,0,.,13.88,0.00,0.00
15min,AgWx,beryljct,423,20SEP2021:04:30:00,42.6,12.69,42.9,43.5,43.8,44.6,43.3,65,67,64,0.627,32.9,33.4,32.7,0,0.4,358,12,2.3,-0.00027,-0.00040,56.8,61.3,16,0,0,.,13.88,0.00,0.00
15min,AgWx,beryljct,423,20SEP2021:04:45:00,42.3,12.69,41.4,42.1,43.0,43.7,42.1,66,69,64,0.620,32.6,33.0,32.2,0,1.5,340,15,3.0,-0.00015,-0.00020,56.7,61.2,16,0,0,.,13.87,0.00,0.00
15min,AgWx,beryljct,423,20SEP2021:05:00:00,41.9,12.67,42.8,41.8,41.4,42.2,40.2,70,74,68,0.614,32.5,33.3,31.9,1.162,0.7,310,12,3.3,-0.00022,-0.00032,56.5,61.1,16,0,0,.,13.88,0.00,0.00
15min,AgWx,beryljct,423,20SEP2021:05:15:00,41.5,12.66,40.4,41.4,41.1,42.4,39.7,71,75,67,0.621,32.4,33.1,31.7,0.482,0.9,278,1.3,2.1,-0.00020,-0.00029,56.4,61.1,16,0,0,.,13.88,0.00,0.00
15min,AgWx,beryljct,423,20SEP2021:05:30:00,41.2,12.66,43.2,43.2,42.8,43.3,41.2,67,71,66,0.625,32.7,33.1,32.3,0.855,0.5,303,26,4.0,-0.00024,-0.00036,56.2,61.0,16,0,0,.,13.88,0.00,0.00
15min,AgWx,beryljct,423,20SEP2021:05:45:00,41.2,12.65,42.8,42.7,42.8,43.2,42.5,67,68,66,0.633,32.7,32.9,32.4,0.745,0.3,15,4.7,1.5,0.00003,0.00005,56.1,60.9,16,0,0,.,13.88,0.00,0.00
15min,AgWx,beryljct,423,20SEP2021:06:00:00,41.3,12.64,42.2,42.5,42.3,42.9,41.6,68,70,67,0.624,32.6,32.9,32.3,1.074,0.5,4.5,5.2,2.2,0.00004,0.00007,55.9,60.9,16,0,0,.,13.88,0.00,0.00
15min,AgWx,beryljct,423,20SEP2021:06:15:00,41.3,12.63,41.7,41.8,41.7,42.5,41.3,70,71,67,0.624,32.5,32.8,32.2,1.929,2.0,341,14,3.0,0.00014,0.00024,55.8,60.8,16,1,0,.,13.88,0.00,0.00
15min,AgWx,beryljct,423,20SEP2021:06:30:00,41.3,12.62,41.5,40.8,41.7,42.3,40.8,69,71,67,0.614,32.3,32.7,32.0,2.258,1.9,355,11,2.7,0.00015,0.00025,55.7,60.8,16,4,0,.,13.88,0.00,0.00
15min,AgWx,beryljct,423,20SEP2021:06:45:00,41.4,12.65,41.8,41.9,41.8,42.7,40.7,69,71,67,0.627,32.5,32.9,32.2,2.74,3.0,352,12,4.5,0.00029,0.00044,55.5,60.7,16,23,0,.,13.88,0.00,0.00
15min,AgWx,beryljct,423,20SEP2021:07:00:00,41.6,12.67,41.9,41.7,41.1,41.9,40.8,74,76,70,0.645,33.4,33.9,32.6,2.017,2.7,324,9.5,3.2,0.00036,0.00048,55.4,60.6,16,46,0,.,13.88,0.00,0.00
15min,AgWx,beryljct,423,20SEP2021:07:15:00,41.9,12.75,42.6,42.3,42.1,42.3,41.7,71,73,69,0.650,33.2,33.8,32.7,3.201,3.1,332,11,4.5,0.00051,0.00066,55.3,60.5,16,69,0,.,13.88,0.00,0.00
15min,AgWx,beryljct,423,20SEP2021:07:30:00,42.5,12.81,43.5,42.8,42.3,42.9,42.1,73,74,70,0.651,34.1,34.5,33.5,4.757,4.1,343,7.3,5.7,0.00063,0.00082,55.2,60.5,16,93,0,.,13.88,0.00,0.00
15min,AgWx,beryljct,423,20SEP2021:07:45:00,43.2,12.86,44.6,44.3,43.5,44.3,42.9,70,72,68,0.695,34.3,35.5,33.3,4.516,3.9,14,15,6.7,0.00074,0.00095,55.1,60.4,16,113,0,.,13.88,0.00,0.00
15min,AgWx,beryljct,423,20SEP2021:08:00:00,44.0,12.9,44.6,44.9,44.7,45.2,44.3,70,72,67,0.699,35.4,36.0,34.6,3.946,4.6,39,6.7,7.3,0.00082,0.00106,55.1,60.3,16,116,0,.,13.87,0.00,0.00
15min,AgWx,beryljct,423,20SEP2021:08:15:00,44.6,13.46,46.9,46.3,45.0,46.3,44.6,67,70,65,0.692,34.9,35.6,34.2,7.475,6.4,44,8.8,10.1,0.00104,0.00138,55.0,60.2,16,159,0,.,13.88,0.00,0.00
15min,AgWx,beryljct,423,20SEP2021:08:30:00,46.8,14.49,49.1,48.8,47.7,48.8,46.4,62,66,59,0.710,35.4,36.6,34.5,9.25,7.9,50,9.6,11.6,0.00199,0.00250,55.0,60.1,15,389,0,.,13.87,0.00,0.00
15min,AgWx,beryljct,423,20SEP2021:08:45:00,49.5,14.44,50.1,50.2,49.6,50.3,48.8,58,62,54,0.686,35.5,37.2,34.4,7.125,8.6,42,12,12.2,0.00237,0.00300,55.0,60.1,15,448,0,.,13.87,0.00,0.00
15min,AgWx,beryljct,423,20SEP2021:09:00:00,51.7,14.42,51.5,51.4,51.0,51.6,50.2,55,59,51,0.672,35.4,37.3,33.6,9.47,9.0,46,9.8,14.9,0.00249,0.00319,55.0,60.0,15,443,0,.,13.87,0.00,0.00
15min,AgWx,beryljct,423,20SEP2021:09:15:00,52.8,14.43,51.9,51.9,51.3,51.9,50.9,51,54,48,0.679,33.8,35.1,32.4,13.07,11.9,49,9.2,16.6,0.00251,0.00339,55.1,59.9,15,396,0,.,13.87,0.00,0.00
15min,AgWx,beryljct,423,20SEP2021:09:30:00,53.7,14.45,52.9,53.0,52.1,53.0,51.3,50,53,47,0.644,34.2,35.9,32.9,15.3,11.9,38,13,16.5,0.00286,0.00378,55.1,59.9,15,480,0,.,13.87,0.00,0.00
15min,AgWx,beryljct,423,20SEP2021:09:45:00,55.1,14.36,53.9,54.0,53.7,54.1,53.0,46,49,43,0.630,33.7,35.4,32.1,18.55,14.0,32,12,19.2,0.00351,0.00465,55.2,59.8,15,602,0,.,13.87,0.00,0.00
15min,AgWx,beryljct,423,20SEP2021:10:00:00,56.2,14.33,55.9,55.5,54.6,55.5,54.0,43,47,41,0.675,32.6,34.5,31.4,13.75,15.9,33,10,22.3,0.00384,0.00517,55.2,59.8,15,642,0,.,13.86,0.00,0.00
15min,AgWx,beryljct,423,20SEP2021:10:15:00,57.4,14.34,56.0,55.8,55.5,55.8,55.3,42,45,40,0.618,32.8,34.9,31.2,13.68,15.2,33,11,19.9,0.00406,0.00542,55.3,59.7,15,678,0,.,13.86,0.00,0.00
15min,AgWx,beryljct,423,20SEP2021:10:30:00,58.4,13.94,56.4,56.2,56.4,57.0,55.9,43,48,40,0.623,34.5,37.0,32.2,12.39,12.2,41,13,17.4,0.00418,0.00539,55.4,59.7,15,711,0,.,13.85,0.00,0.00
15min,AgWx,beryljct,423,20SEP2021:10:45:00,59.3,13.86,57.1,56.9,56.7,57.1,56.2,43,46,40,0.643,34.6,36.3,33.0,14.12,12.5,47,16,18.9,0.00434,0.00558,55.5,59.6,15,739,0,.,13.85,0.00,0.00
15min,AgWx,beryljct,423,20SEP2021:11:00:00,60.0,13.86,57.4,57.4,57.4,58.1,56.9,41,45,37,0.634,33.8,36.1,32.2,12.19,13.0,39,15,18.9,0.00456,0.00590,55.6,59.6,15,766,0,.,13.85,0.00,0.00
15min,AgWx,beryljct,423,20SEP2021:11:15:00,60.8,13.84,58.4,58.4,58.0,58.5,57.5,41,45,38,0.662,34.4,36.9,32.2,18.48,11.8,47,15,18.5,0.00468,0.00596,55.8,59.5,15,788,0,.,13.85,0.00,0.00
15min,AgWx,beryljct,423,20SEP2021:11:30:00,61.5,13.85,58.7,58.6,58.5,58.9,58.1,40,43,36,0.610,34.0,36.1,32.0,13.09,12.7,39,14,17.2,0.00484,0.00623,55.9,59.5,15,808,0,.,13.84,0.00,0.00
15min,AgWx,beryljct,423,20SEP2021:11:45:00,62.3,13.96,59.3,58.8,58.9,59.3,58.5,39,44,36,0.657,33.9,37.1,31.9,8.55,12.6,48,11,17.7,0.00495,0.00636,56.1,59.5,15,823,0,.,13.84,0.00,0.00
15min,AgWx,beryljct,423,20SEP2021:12:00:00,62.9,13.82,59.8,59.8,59.6,60.6,58.8,38,44,34,0.637,33.7,38.1,31.8,10.43,12.5,45,16,18.5,0.00507,0.00651,56.3,59.5,15,833,0,.,13.84,0.00,0.00
15min,AgWx,beryljct,423,20SEP2021:12:15:00,63.5,13.81,59.8,60.3,60.1,60.7,59.6,36,40,32,0.644,33.3,35.9,30.6,10.13,11.9,39,17,18.0,0.00515,0.00660,56.4,59.4,15,838,0,.,13.84,0.00,0.00
15min,AgWx,beryljct,423,20SEP2021:12:30:00,64.0,13.84,60.4,60.8,60.8,61.6,60.0,35,38,30,0.651,33.1,35.2,29.2,11.38,12.3,37,18,19.1,0.00526,0.00677,56.7,59.4,15,842,0,.,13.84,0.00,0.00
15min,AgWx,beryljct,423,20SEP2021:12:45:00,64.4,13.9,61.6,61.2,60.8,61.5,60.5,37,42,33,0.737,34.1,37.5,31.8,8.02,11.4,50,14,17.0,0.00523,0.00666,56.8,59.4,15,844,0,.,13.84,0.00,0.00
15min,AgWx,beryljct,423,20SEP2021:13:00:00,65.0,13.74,61.3,61.4,61.4,61.9,61.0,36,43,32,0.663,34.5,38.7,31.7,11.4,11.6,52,12,19.3,0.00526,0.00672,57.1,59.4,15,837,0,.,13.84,0.00,0.00
15min,AgWx,beryljct,423,20SEP2021:13:15:00,65.6,13.73,61.6,61.9,61.9,62.6,61.3,34,39,30,0.583,33.5,36.4,30.5,10.06,12.9,47,19,19.9,0.00533,0.00693,57.3,59.4,15,827,0,.,13.84,0.00,0.00
15min,AgWx,beryljct,423,20SEP2021:13:30:00,66.3,13.72,62.8,63.4,62.7,63.4,61.9,34,38,29,0.588,33.8,37.0,30.2,13.15,11.4,41,14,18.2,0.00530,0.00682,57.5,59.4,15,815,0,.,13.84,0.00,0.00
15min,AgWx,beryljct,423,20SEP2021:13:45:00,67.1,13.74,62.9,63.3,63.4,63.9,62.6,30,34,26,0.579,31.3,34.5,28.5,8.7,11.5,34,17,16.2,0.00538,0.00700,57.7,59.4,15,799,0,.,13.83,0.00,0.00
15min,AgWx,beryljct,423,20SEP2021:14:00:00,68.0,13.7,64.4,64.7,64.0,64.7,63.2,28,34,25,0.582,30.6,35.0,27.6,14.49,11.9,26,17,16.8,0.00537,0.00706,58.0,59.4,15,779,0,.,13.84,0.00,0.00
15min,AgWx,beryljct,423,20SEP2021:14:15:00,68.7,13.7,65.5,65.1,64.3,65.1,63.7,28,31,25,0.569,30.3,33.1,27.2,9.82,11.9,35,17,18.0,0.00528,0.00700,58.3,59.5,15,755,0,.,13.84,0.00,0.00
15min,AgWx,beryljct,423,20SEP2021:14:30:00,69.3,13.65,64.3,65.3,65.0,66.1,64.2,26,29,22,0.554,28.8,32.6,25.4,13.24,11.5,36,16,17.4,0.00523,0.00696,58.6,59.5,15,727,0,.,13.84,0.00,0.00
15min,AgWx,beryljct,423,20SEP2021:14:45:00,69.8,13.64,64.1,65.5,65.4,66.1,64.7,25,30,22,0.509,28.6,33.4,25.2,11.6,11.5,37,12,19.3,0.00494,0.00668,59.0,59.5,15,662,0,.,13.84,0.00,0.00
15min,AgWx,beryljct,423,20SEP2021:15:00:00,70.2,13.61,64.6,65.7,65.4,66.3,64.8,24,29,21,0.453,28.1,32.1,24.7,11,11.1,47,18,17.7,0.00490,0.00661,59.4,59.5,15,661,0,.,13.83,0.00,0.00
15min,AgWx,beryljct,423,20SEP2021:15:15:00,70.6,13.63,65.5,65.8,66.0,66.5,65.4,22,24,19,0.441,26.1,28.5,22.7,13.53,11.5,24,17,19.2,0.00485,0.00665,59.7,59.6,15,628,0,.,13.84,0.00,0.00
15min,AgWx,beryljct,423,20SEP2021:15:30:00,70.8,13.7,65.6,66.4,66.2,66.7,65.4,21,23,19,0.478,25.2,28.2,22.0,12.17,12.2,32,17,16.6,0.00467,0.00656,60.0,59.6,15,575,0,.,13.83,0.00,0.00
15min,AgWx,beryljct,423,20SEP2021:15:45:00,70.8,13.69,67.1,66.3,66.1,66.4,65.7,22,24,20,0.507,25.9,28.0,24.1,11.71,13.6,38,14,18.6,0.00463,0.00662,60.3,59.7,15,546,0,.,13.84,0.00,0.00
15min,AgWx,beryljct,423,20SEP2021:16:00:00,70.7,13.62,67.0,66.2,66.3,66.7,66.0,21,23,18,0.485,25.4,27.8,21.6,12.06,13.4,37,11,18.6,0.00441,0.00640,60.6,59.8,15,503,0,.,13.83,0.00,0.00
15min,AgWx,beryljct,423,20SEP2021:16:15:00,70.6,13.64,65.8,66.0,66.2,66.7,65.8,23,24,21,0.503,27.0,29.0,24.6,13.22,13.3,38,14,18.8,0.00411,0.00604,60.8,59.9,15,454,0,.,13.84,0.00,0.00
15min,AgWx,beryljct,423,20SEP2021:16:30:00,70.3,13.68,66.4,66.0,66.0,66.3,65.8,22,24,21,0.491,26.2,28.5,25.0,10.54,13.2,41,11,19.3,0.00386,0.00577,61.0,59.9,15,407,0,.,13.84,0.00,0.00
15min,AgWx,beryljct,423,20SEP2021:16:45:00,70.0,13.64,65.7,65.7,65.9,66.2,65.4,23,24,22,0.523,26.8,28.6,25.2,10.87,12.8,45,10,17.7,0.00354,0.00538,61.1,60.0,15,357,0,.,13.84,0.00,0.00
15min,AgWx,beryljct,423,20SEP2021:17:00:00,69.5,13.62,65.2,65.2,65.4,65.7,65.0,23,25,21,0.472,26.6,28.7,25.0,14.07,13.2,50,12,17.3,0.00328,0.00512,61.1,60.1,15,307,0,.,13.84,0.00,0.00
15min,AgWx,beryljct,423,20SEP2021:17:15:00,68.8,13.64,64.2,64.7,64.9,65.3,64.6,23,25,22,0.480,26.7,28.3,25.6,8.35,13.5,51,8.1,17.5,0.00304,0.00487,61.2,60.2,15,256,0,.,13.84,0.00,0.00
15min,AgWx,beryljct,423,20SEP2021:17:30:00,68.0,13.65,64.2,64.1,64.2,64.7,63.9,24,25,22,0.474,26.4,27.7,24.8,10.24,12.7,53,8.9,16.2,0.00264,0.00435,61.2,60.3,15,208,0,.,13.84,0.00,0.00
15min,AgWx,beryljct,423,20SEP2021:17:45:00,67.1,13.69,62.6,63.0,63.7,64.2,62.9,24,26,22,0.481,25.9,28.1,24.1,10.57,11.8,50,8.0,17.5,0.00123,0.00150,61.2,60.4,15,160,0,.,13.84,0.00,0.00
15min,AgWx,beryljct,423,20SEP2021:18:00:00,66.1,13.28,62.2,61.6,62.6,63.2,61.6,25,27,23,0.498,26.3,27.8,24.7,12.41,11.6,52,8.5,17.6,0.00110,0.00135,61.1,60.5,15,115,0,.,13.84,0.00,0.00
15min,AgWx,beryljct,423,20SEP2021:18:15:00,64.7,13.17,59.5,60.3,61.3,61.9,60.3,26,28,25,0.486,26.4,27.3,25.4,8.68,10.1,50,7.8,13.1,0.00092,0.00115,61.0,60.6,15,74,0,.,13.84,0.00,0.00
15min,AgWx,beryljct,423,20SEP2021:18:30:00,62.7,13.05,57.6,57.9,59.0,60.3,57.9,29,31,27,0.507,27.1,27.5,26.5,7.629,8.0,47,5.6,10.4,0.00063,0.00082,60.8,60.7,15,17,0,.,13.85,0.00,0.00
15min,AgWx,beryljct,423,20SEP2021:18:45:00,60.4,13.01,55.8,55.7,56.7,57.9,55.7,32,33,30,0.504,27.2,27.6,26.7,5.722,6.7,51,5.2,9.6,0.00047,0.00064,60.7,60.8,15,4,0,.,13.85,0.00,0.00
15min,AgWx,beryljct,423,20SEP2021:19:00:00,58.4,12.98,56.7,56.2,55.8,56.5,55.3,32,34,31,0.481,26.7,27.4,25.9,9.25,7.6,35,6.3,10.6,0.00050,0.00066,60.4,60.8,15,1,0,.,13.85,0.00,0.00
15min,AgWx,beryljct,423,20SEP2021:19:15:00,57.2,12.96,56.3,56.0,56.0,56.3,55.7,31,32,30,0.471,26.0,26.5,25.4,9.71,8.6,30,6.8,10.2,0.00057,0.00074,60.2,60.9,15,0,0,.,13.85,0.00,0.00
15min,AgWx,beryljct,423,20SEP2021:19:30:00,56.6,12.96,56.3,55.7,56.1,56.4,55.7,30,31,29,0.458,25.2,25.6,24.7,11.25,10.1,31,6.4,13.1,0.00066,0.00082,60.0,60.9,16,0,0,.,13.86,0.00,0.00
15min,AgWx,beryljct,423,20SEP2021:19:45:00,55.8,12.94,52.0,52.7,54.3,55.8,52.6,33,37,30,0.503,26.1,27.4,24.9,5.897,7.2,44,15,10.6,0.00046,0.00061,59.7,61.0,15,0,0,.,13.85,0.00,0.00
15min,AgWx,beryljct,423,20SEP2021:20:00:00,54.4,12.93,51.4,51.3,51.9,52.8,51.0,37,39,35,0.475,26.5,27.2,25.8,2.981,4.8,47,3.9,7.5,0.00025,0.00036,59.4,61.0,15,0,0,.,13.86,0.00,0.00
15min,AgWx,beryljct,423,20SEP2021:20:15:00,52.9,12.93,51.3,51.1,51.0,51.5,50.4,38,40,37,0.501,26.5,27.3,25.8,6.883,4.8,51,9.3,8.6,0.00023,0.00033,59.1,61.0,15,0,0,.,13.86,0.00,0.00
15min,AgWx,beryljct,423,20SEP2021:20:30:00,52.1,12.91,51.3,51.1,51.2,51.6,50.7,39,40,37,0.494,27.0,27.7,25.8,6.993,5.8,53,8.2,8.3,0.00029,0.00041,58.9,61.0,15,0,0,.,13.86,0.00,0.00
15min,AgWx,beryljct,423,20SEP2021:20:45:00,51.2,12.92,49.4,49.4,49.9,51.1,49.1,42,45,38,0.516,27.6,28.5,26.7,5.042,4.5,64,19,6.6,0.00018,0.00027,58.6,61.0,15,0,0,.,13.86,0.00,0.00
15min,AgWx,beryljct,423,20SEP2021:21:00:00,50.2,12.9,48.5,47.9,48.5,49.4,47.5,44,45,43,0.486,27.4,28.0,26.4,3.793,4.4,56,8.1,6.1,0.00016,0.00024,58.3,61.0,15,0,0,.,13.86,0.00,0.00
15min,AgWx,beryljct,423,20SEP2021:21:15:00,49.4,12.9,48.0,48.6,48.1,48.8,47.7,43,44,43,0.501,26.8,27.3,26.3,5.152,4.8,51,6.3,7.0,0.00019,0.00027,58.1,61.0,15,0,0,.,13.86,0.00,0.00
15min,AgWx,beryljct,423,20SEP2021:21:30:00,48.9,12.89,48.6,48.7,48.3,48.9,47.8,44,45,42,0.501,27.2,27.6,26.8,5.393,6.0,56,6.4,7.6,0.00025,0.00034,57.8,61.0,15,0,0,.,13.86,0.00,0.00
15min,AgWx,beryljct,423,20SEP2021:21:45:00,48.6,12.88,47.7,48.4,48.8,49.0,48.3,42,43,41,0.500,26.7,27.3,26.3,4.034,5.7,61,11,7.8,0.00025,0.00035,57.6,61.0,15,0,0,.,13.86,0.00,0.00
15min,AgWx,beryljct,423,20SEP2021:22:00:00,48.2,12.88,49.5,49.0,48.7,49.2,48.1,41,43,38,0.455,25.8,27.1,24.8,1.052,2.2,76,15,4.6,-0.00002,0.00001,57.3,60.9,15,0,0,.,13.86,0.00,0.00
15min,AgWx,beryljct,423,20SEP2021:22:15:00,47.5,12.87,48.0,48.2,48.7,49.4,47.9,39,40,38,0.452,24.8,25.0,24.5,0.877,0.9,32,52,2.7,-0.00021,-0.00029,57.0,60.9,15,0,0,.,13.87,0.00,0.00
15min,AgWx,beryljct,423,20SEP2021:22:30:00,47.2,12.86,48.2,48.9,48.8,49.4,48.1,38,40,37,0.455,24.5,24.8,24.1,2.214,2.3,8.0,50,4.6,-0.00001,0.00002,56.8,60.9,15,0,0,.,13.86,0.00,0.00
15min,AgWx,beryljct,423,20SEP2021:22:45:00,46.9,12.86,47.3,47.2,48.0,48.8,47.2,40,42,39,0.455,24.9,25.3,24.6,4.45,1.8,345,23,5.0,-0.00007,-0.00007,56.6,60.8,15,0,0,.,13.86,0.00,0.00
15min,AgWx,beryljct,423,20SEP2021:23:00:00,46.3,12.85,46.6,45.2,45.5,47.3,44.3,46,50,41,0.485,25.9,26.8,24.9,5.393,2.2,355,49,5.4,-0.00004,-0.00002,56.3,60.8,16,0,0,.,13.86,0.00,0.00
15min,AgWx,beryljct,423,20SEP2021:23:15:00,45.8,12.85,48.1,46.7,46.3,46.7,45.3,46,47,44,0.487,26.4,26.8,25.9,5.678,4.8,69,6.3,6.0,0.00016,0.00024,56.1,60.7,15,0,0,.,13.87,0.00,0.00
15min,AgWx,beryljct,423,20SEP2021:23:30:00,45.8,12.84,46.9,47.4,46.8,47.4,46.4,45,46,43,0.477,26.4,26.7,25.9,7.059,6.3,58,6.5,8.6,0.00025,0.00034,55.9,60.6,15,0,0,.,13.87,0.00,0.00
15min,AgWx,bigpiney,439,20SEP2021:00:00:00,35.3,12.55,30.4,30.4,31.4,32.2,30.4,80,82,78,0.464,25.9,26.8,24.9,6.774,5.4,206,10,7.8,0.00001,0.00002,48.9,49.7,47,0,0,0.0,4.53,0.00,0.00
15min,AgWx,bigpiney,439,20SEP2021:00:15:00,35.0,12.54,32.2,31.3,30.6,31.3,30.1,83,84,81,0.486,26.0,26.4,25.1,6.62,7.7,225,7.5,9.4,0.00002,0.00004,48.8,49.7,47,0,0,0.0,4.53,0.00,0.00
15min,AgWx,bigpiney,439,20SEP2021:00:30:00,34.7,12.52,31.9,31.7,31.9,32.2,31.4,80,82,79,0.480,26.4,26.8,26.0,7.212,6.6,243,5.5,7.7,0.00003,0.00004,48.7,49.7,47,0,0,0.0,4.53,0.00,0.00
15min,AgWx,bigpiney,439,20SEP2021:00:45:00,34.6,12.52,31.7,31.5,31.5,31.8,31.2,80,81,80,0.480,26.0,26.3,25.8,5.744,6.2,249,8.0,7.7,0.00002,0.00003,48.7,49.6,47,0,0,0.0,4.53,0.00,0.00
15min,AgWx,bigpiney,439,20SEP2021:01:00:00,34.4,12.52,31.6,30.9,31.0,31.5,30.6,80,80,79,0.468,25.5,26.1,25.1,1.6,5.1,238,7.6,7.2,0.00001,0.00002,48.6,49.6,47,0,0,0.0,4.53,0.00,0.00
15min,AgWx,bigpiney,439,20SEP2021:01:15:00,34.1,12.5,31.2,30.8,30.8,31.9,30.0,80,82,78,0.474,25.4,26.5,24.4,5.985,5.0,19,37,7.2,0.00000,0.00001,48.6,49.5,47,0,0,0.0,4.53,0.00,0.00
15min,AgWx,bigpiney,439,20SEP2021:01:30:00,33.9,12.51,31.4,31.0,31.5,32.1,30.9,81,82,80,0.480,26.3,26.8,25.8,4.472,4.4,51,16,6.3,-0.00001,-0.00000,48.5,49.6,47,0,0,0.0,4.53,0.00,0.00
15min,AgWx,bigpiney,439,20SEP2021:01:45:00,33.8,12.5,32.7,32.4,32.2,32.7,31.0,82,84,80,0.498,27.3,27.7,26.2,1.863,2.6,20,28,4.9,-0.00006,-0.00006,48.5,49.5,47,0,0,0.0,4.53,0.00,0.00
15min,AgWx,bigpiney,439,20SEP2021:02:00:00,33.8,12.49,30.2,30.1,31.0,32.5,30.1,83,86,80,0.470,26.5,27.3,25.5,0.482,1.4,314,29,3.9,-0.00010,-0.00013,48.4,49.5,47,0,0,0.0,4.53,0.00,0.00
15min,AgWx,bigpiney,439,20SEP2021:02:15:00,33.9,12.47,31.0,30.3,30.8,31.6,30.0,84,86,83,0.479,26.6,27.3,25.7,2.85,1.2,188,15,2.9,-0.00011,-0.00015,48.4,49.5,47,0,0,0.0,4.53,0.00,0.00
15min,AgWx,bigpiney,439,20SEP2021:02:30:00,33.9,12.47,29.7,29.7,30.5,31.1,29.7,86,87,84,0.475,26.7,27.4,25.8,3.814,1.7,175,18,4.2,-0.00009,-0.00012,48.3,49.4,47,0,0,0.0,4.53,0.00,0.00
15min,AgWx,bigpiney,439,20SEP2021:02:45:00,33.6,12.47,33.1,32.0,30.0,32.0,28.6,86,88,83,0.513,26.4,28.5,24.4,1.425,3.4,181,16,4.5,-0.00005,-0.00005,48.3,49.4,47,0,0,0.0,4.53,0.00,0.00
15min,AgWx,bigpiney,439,20SEP2021:03:00:00,33.5,12.46,34.2,33.9,32.6,33.9,31.4,83,85,82,0.554,28.1,29.6,26.7,3.793,2.8,240,22,4.9,-0.00006,-0.00006,48.2,49.3,47,0,0,0.0,4.53,0.00,0.00
15min,AgWx,bigpiney,439,20SEP2021:03:15:00,33.7,12.45,34.1,33.9,33.6,34.0,33.2,85,87,83,0.572,29.6,30.4,28.5,4.516,3.9,280,14,6.3,-0.00004,-0.00004,48.1,49.4,47,0,0,0.0,4.53,0.00,0.00
15min,AgWx,bigpiney,439,20SEP2021:03:30:00,34.1,12.42,34.7,34.3,34.2,34.4,33.9,87,87,86,0.577,30.6,30.8,30.3,7.717,7.2,313,7.7,9.5,0.00000,0.00001,48.1,49.4,47,0,0,0.0,4.53,0.00,0.00
15min,AgWx,bigpiney,439,20SEP2021:03:45:00,34.3,12.43,33.3,33.2,33.8,34.3,33.2,86,86,86,0.551,30.0,30.5,29.4,4.604,6.1,317,7.7,7.9,-0.00001,0.00000,48.1,49.3,47,0,0,0.0,4.53,0.00,0.00
15min,AgWx,bigpiney,439,20SEP2021:04:00:00,34.3,12.42,32.8,32.6,32.8,33.2,32.3,86,87,85,0.538,29.1,29.5,28.4,5.283,4.8,332,10,6.1,-0.00002,-0.00002,48.0,49.3,47,0,0,0.0,4.53,0.00,0.00
15min,AgWx,bigpiney,439,20SEP2021:04:15:00,34.1,12.4,33.2,33.1,32.7,33.1,32.1,87,87,86,0.552,29.1,29.5,28.4,7.015,6.7,304,8.4,8.3,-0.00000,0.00000,48.0,49.2,47,0,0,0.0,4.53,0.00,0.00
15min,AgWx,bigpiney,439,20SEP2021:04:30:00,34.1,12.4,33.5,33.4,33.4,33.7,33.0,86,87,85,0.550,29.6,29.9,29.4,7.037,8.1,303,6.5,10.0,0.00001,0.00002,47.9,49.2,47,0,0,0.0,4.53,0.00,0.00
15min,AgWx,bigpiney,439,20SEP2021:04:45:00,34.1,12.38,31.5,31.4,32.6,33.4,31.3,85,87,85,0.521,28.7,29.5,27.5,6.094,6.0,329,24,8.1,-0.00001,0.00000,47.8,49.2,47,0,0,0.0,4.53,0.00,0.00
15min,AgWx,bigpiney,439,20SEP2021:05:00:00,34.0,12.37,32.2,31.8,31.8,32.1,31.4,87,88,86,0.523,28.3,28.7,28.0,3.157,5.1,336,6.9,6.7,-0.00002,-0.00002,47.8,49.2,47,0,0,0.0,4.53,0.00,0.00
15min,AgWx,bigpiney,439,20SEP2021:05:15:00,33.8,12.36,34.2,33.6,32.4,33.6,31.5,85,86,82,0.536,28.4,29.0,27.7,2.28,3.6,4.6,13,5.5,-0.00004,-0.00004,47.8,49.1,47,0,0,0.0,4.53,0.00,0.00
15min,AgWx,bigpiney,439,20SEP2021:05:30:00,33.6,12.36,32.1,32.0,32.3,33.7,30.7,84,87,81,0.516,27.9,28.9,25.7,2.477,1.0,243,39,2.8,-0.00012,-0.00016,47.7,49.1,47,0,0,0.0,4.53,0.00,0.00
15min,AgWx,bigpiney,439,20SEP2021:05:45:00,33.1,12.35,30.5,31.0,31.6,32.4,30.6,85,87,83,0.503,27.6,28.4,26.2,3.135,2.8,246,17,5.0,-0.00006,-0.00007,47.6,49.1,47,0,0,0.0,4.53,0.00,0.00
15min,AgWx,bigpiney,439,20SEP2021:06:00:00,32.5,12.33,31.9,32.0,31.1,32.0,29.6,86,88,82,0.518,27.2,28.5,25.1,1.228,1.9,285,21,3.5,-0.00008,-0.00011,47.6,49.0,47,1,0,0.0,4.53,0.00,0.00
15min,AgWx,bigpiney,439,20SEP2021:06:15:00,31.9,12.33,33.3,32.7,32.0,32.7,31.1,84,85,82,0.514,27.8,28.2,26.4,2.039,2.2,290,14,3.8,-0.00006,-0.00007,47.6,49.0,47,10,0,0.0,4.53,0.00,0.00
15min,AgWx,bigpiney,439,20SEP2021:06:30:00,31.6,12.36,28.1,27.9,30.9,33.1,27.8,83,86,80,0.436,26.3,28.3,23.7,2.126,1.6,264,20,4.7,-0.00019,-0.00018,47.5,49.0,47,41,0,0.0,4.53,0.00,0.00
15min,AgWx,bigpiney,439,20SEP2021:06:45:00,31.3,12.42,31.4,30.6,29.6,31.6,27.8,86,88,80,0.492,25.8,27.8,23.8,1.425,1.9,273,14,3.1,-0.00005,-0.00002,47.5,48.9,47,76,0,0.0,4.53,0.00,0.00
15min,AgWx,bigpiney,439,20SEP2021:07:00:00,31.4,12.57,33.2,32.9,32.3,33.3,30.7,82,85,79,0.515,27.4,28.3,26.3,1.6,2.5,290,14,3.8,0.00014,0.00020,47.4,48.9,47,116,0,0.0,4.53,0.00,0.00
15min,AgWx,bigpiney,439,20SEP2021:07:15:00,31.9,12.97,36.6,35.5,34.7,35.5,32.9,78,82,74,0.565,28.6,30.1,27.8,0,0.9,0.0,15,1.9,0.00031,0.00036,47.4,48.9,47,160,0,0.0,4.53,0.00,0.00
15min,AgWx,bigpiney,439,20SEP2021:07:30:00,33.1,13.46,33.3,32.9,33.7,36.1,32.3,82,86,76,0.533,28.9,30.1,27.6,3.354,2.3,187,7.6,4.2,0.00052,0.00060,47.3,48.8,47,205,0,0.0,4.53,0.00,0.00
15min,AgWx,bigpiney,439,20SEP2021:07:45:00,34.6,13.72,37.5,37.2,34.8,37.3,32.9,80,85,72,0.542,29.3,30.0,28.7,2.411,3.1,189,13,5.0,0.00074,0.00086,47.3,48.8,47,252,0,0.0,4.53,0.00,0.00
15min,AgWx,bigpiney,439,20SEP2021:08:00:00,36.7,14.76,39.2,39.5,38.7,39.8,37.2,68,71,64,0.523,28.9,30.1,28.0,5.568,3.3,25,53,8.3,0.00109,0.00129,47.2,48.8,47,303,0,0.0,4.53,0.00,0.00
15min,AgWx,bigpiney,439,20SEP2021:08:15:00,39.0,14.73,41.1,40.8,40.0,40.8,39.3,64,65,62,0.545,28.7,29.7,27.7,8.44,7.7,12,10,11.4,0.00141,0.00180,47.2,48.7,47,352,0,0.0,4.53,0.00,0.00
15min,AgWx,bigpiney,439,20SEP2021:08:30:00,41.3,14.74,41.2,40.9,40.9,41.5,40.5,60,63,58,0.520,28.2,29.7,26.8,11.33,8.6,5.5,13,11.3,0.00173,0.00220,47.1,48.7,47,416,0,0.0,4.53,0.00,0.00